GEFSSE_500_meanwind_102.txt.gz
Wind_Speed
8 8 8 8 8 8 8 9 9 8 8 8 8 8 8 9 9 9 9 9 9 9 10 9 9 9 8 8 8 7 7 6 6 6 7 7 8 8 8 9 9 10 10
8 8 8 9 9 9 9 9 8 8 7 7 7 7 8 8 8 9 9 9 9 9 9 9 9 8 7 7 6 6 6 5 5 5 5 6 6 7 8 9 9 10 10
8 9 9 9 9 9 9 9 8 8 7 7 7 7 7 8 8 8 9 10 10 10 9 9 9 8 8 7 6 5 5 4 4 4 4 4 5 6 7 8 8 9 9
9 9 9 10 9 9 9 9 9 8 7 7 7 8 8 8 8 9 9 10 11 10 10 9 9 9 8 8 7 5 4 3 3 2 2 3 4 5 6 7 7 8 8
10 10 9 9 10 10 9 10 9 9 8 8 8 8 9 9 10 10 10 11 11 11 11 11 10 10 9 9 8 7 5 4 3 2 1 1 2 4 5 6 7 7 8
11 10 10 10 10 11 11 10 10 10 10 9 9 10 10 10 10 11 11 11 12 12 12 12 12 12 11 10 9 8 7 6 5 4 2 2 2 3 4 5 6 7 7
12 11 11 11 11 11 12 11 11 11 11 11 10 10 11 11 11 12 12 13 12 12 13 13 13 13 12 11 11 10 9 8 7 6 5 4 4 4 4 5 6 6 7
13 13 12 12 12 12 12 12 12 12 12 12 12 12 12 13 13 13 13 14 14 14 14 14 14 14 14 13 12 12 11 11 10 9 8 7 6 6 6 6 7 7 7
14 14 13 13 13 13 13 13 13 13 13 13 14 14 14 15 15 15 16 16 15 15 15 15 15 16 16 15 14 14 13 13 13 12 10 10 9 8 8 8 8 8 8
17 16 15 14 14 14 14 14 14 14 15 15 15 16 16 16 16 17 18 18 17 17 17 17 18 17 18 17 17 16 15 15 14 14 13 12 12 11 11 10 10 10 10
20 17 16 16 16 16 15 16 16 16 17 17 17 17 17 17 18 19 19 20 20 19 19 19 20 20 20 20 19 18 17 16 16 16 16 15 15 14 13 13 12 12 11
21 19 18 18 18 18 18 18 18 18 18 19 19 19 19 20 20 21 21 22 22 22 21 21 22 22 22 21 21 20 19 18 17 17 18 17 16 16 16 15 15 14 13
23 21 20 20 20 20 20 20 20 20 20 21 21 21 22 22 23 23 23 23 24 23 24 23 22 22 23 23 23 22 22 21 20 18 18 19 19 19 18 17 17 16 15
24 25 24 23 21 22 22 22 23 24 24 24 24 25 25 25 25 25 26 25 25 25 24 25 25 24 24 24 24 24 24 24 23 21 21 20 20 21 21 21 20 19 18
26 26 26 25 24 25 25 25 25 26 27 27 28 28 29 28 28 27 26 26 25 26 25 26 26 26 26 26 25 24 25 25 25 23 23 22 22 23 23 23 23 22 21
26 27 27 26 27 27 27 26 27 28 29 30 30 30 30 29 28 29 29 28 27 26 26 26 27 28 29 29 28 26 26 26 26 25 24 23 23 23 24 24 25 24 23
26 26 27 27 29 29 29 28 28 29 31 32 32 31 30 29 29 31 30 29 27 27 27 27 28 29 29 29 29 28 28 26 26 26 25 24 24 24 24 24 25 25 25
26 27 28 29 29 30 31 32 32 32 32 33 34 34 33 33 33 32 31 30 29 28 27 27 29 29 28 29 30 30 29 28 27 27 26 25 25 24 24 24 25 26 26
26 27 29 30 31 32 33 35 35 35 35 36 36 35 35 36 36 35 34 32 32 30 29 29 29 29 30 30 30 29 28 28 28 28 28 27 26 25 25 25 26 26 26
27 28 30 31 32 34 35 36 36 37 37 38 38 38 38 38 37 36 35 34 33 32 31 29 29 29 30 30 31 29 28 29 29 28 28 29 28 27 26 25 25 26 26
26 28 30 32 33 34 35 36 37 37 38 38 38 39 39 38 38 37 36 35 34 33 31 30 29 28 29 29 30 30 30 30 29 29 28 29 29 28 28 27 25 26 26
26 28 30 32 34 36 37 37 37 38 39 39 39 40 40 39 38 38 37 36 34 33 31 30 30 29 29 29 30 30 30 30 30 29 28 28 29 29 29 28 26 26 26
28 30 32 34 35 36 37 37 38 38 39 39 39 40 40 40 39 38 37 36 35 34 32 31 31 30 29 31 31 31 31 30 31 31 30 29 30 30 30 29 28 27 26
29 31 32 34 35 35 36 37 37 38 39 39 40 40 40 39 39 38 37 36 35 34 33 32 32 30 31 32 32 32 31 30 31 32 32 32 32 31 30 29 29 28 27
29 30 31 33 34 34 35 36 37 38 39 39 39 39 39 39 39 38 38 37 36 35 34 33 33 32 31 31 32 32 32 32 31 32 32 33 33 32 32 30 30 28 27
28 29 30 31 32 33 34 34 35 36 37 38 38 38 38 39 39 39 39 38 37 36 35 35 34 33 33 32 32 32 33 32 31 33 33 33 34 34 33 32 30 29 28

GEFSSE_500_meanwind_108.txt.gz
Wind_Speed
8 7 8 7 7 7 7 7 6 6 6 6 6 6 6 7 7 8 8 9 9 9 10 10 10 10 9 9 9 8 8 8 7 7 7 7 7 7 7 7 8 9 9
8 7 7 7 7 7 7 7 6 6 5 4 4 4 5 5 5 6 6 7 7 7 7 8 8 8 8 8 7 7 7 6 6 6 6 6 6 6 6 7 8 9 9
9 8 7 7 7 7 7 7 6 5 5 4 4 4 3 3 4 4 5 5 6 6 6 6 7 7 7 6 6 5 5 5 5 4 5 5 5 6 6 6 7 9 9
9 8 7 7 7 7 7 7 7 6 6 5 5 5 4 4 4 4 4 5 5 6 6 6 6 6 5 5 4 4 3 3 3 3 3 4 4 5 6 6 7 8 9
10 10 9 8 8 7 7 8 7 7 6 6 6 6 6 6 5 6 6 6 6 6 6 6 6 6 5 4 4 3 2 1 1 1 2 2 3 4 5 6 7 7 8
12 12 10 9 9 8 8 8 8 7 8 8 8 8 8 8 7 7 8 7 7 7 7 7 6 6 6 5 4 3 2 2 1 1 2 3 3 4 5 5 6 7 8
14 13 12 11 10 10 10 9 9 9 9 10 10 10 10 10 10 9 10 10 10 10 9 9 8 8 7 6 6 6 5 4 3 3 3 4 4 5 5 5 6 7 8
15 15 14 13 12 12 11 11 11 11 11 11 11 11 11 11 11 11 12 12 12 12 11 11 10 10 10 9 8 8 8 7 6 6 5 6 6 6 6 6 6 7 7
16 16 15 15 14 13 13 13 13 13 13 13 13 13 13 13 13 13 13 14 14 14 13 13 13 13 12 12 11 10 10 9 9 8 8 8 8 7 8 8 8 8 8
17 17 16 15 15 15 15 16 16 15 16 15 15 15 15 15 15 15 15 15 16 16 16 16 16 16 16 15 14 13 12 12 11 11 10 10 10 10 10 10 10 9 10
19 18 18 17 17 17 18 18 18 18 19 18 18 17 17 16 17 17 18 18 18 19 19 19 19 19 19 18 17 16 15 14 14 13 13 12 12 12 12 12 12 12 11
21 20 19 19 19 20 20 20 20 20 21 21 20 20 19 19 19 19 20 20 21 21 21 21 21 22 21 21 20 19 18 17 16 16 15 15 15 15 15 15 14 14 14
22 21 21 20 21 22 22 22 23 22 22 22 22 22 21 21 21 21 21 22 22 22 22 23 24 24 24 23 23 22 21 19 19 19 18 17 17 17 17 17 17 17 16
21 22 22 23 23 24 24 25 24 24 24 25 25 24 24 23 23 24 23 24 24 25 24 24 25 25 26 26 25 24 23 21 20 20 20 20 19 19 18 19 20 20 19
21 22 23 22 22 22 24 25 26 27 26 27 27 27 27 26 26 27 27 27 27 27 25 24 25 25 25 26 25 25 25 24 22 22 23 22 22 21 21 21 22 22 22
23 23 23 23 23 24 25 25 25 27 28 27 27 28 29 29 29 28 29 28 27 25 25 25 25 25 25 27 27 26 26 26 25 24 24 25 24 24 23 23 24 24 24
24 24 23 24 25 26 25 25 26 26 25 26 27 28 29 29 29 28 29 29 28 27 26 26 26 26 26 28 28 27 27 28 27 27 27 27 26 26 25 25 26 26 26
24 24 24 25 26 27 27 27 28 29 28 28 28 28 29 29 30 29 30 30 29 28 28 27 26 27 28 28 28 28 27 29 28 29 29 28 28 28 28 27 27 27 28
25 25 26 27 28 28 28 29 30 30 30 30 30 30 30 29 28 29 30 30 30 29 28 28 28 28 28 29 29 29 29 30 30 30 30 30 29 30 30 29 29 28 28
25 25 26 27 28 29 29 30 30 31 31 32 32 31 31 31 30 31 31 31 31 30 30 30 30 30 29 29 30 30 31 31 31 30 30 30 30 31 31 31 31 30 28
25 26 27 28 29 30 31 31 32 32 32 33 33 33 33 33 34 33 33 32 33 32 32 32 32 32 31 31 31 31 32 33 32 31 31 31 31 32 32 32 32 31 29
26 28 29 31 32 32 33 33 33 33 34 34 34 35 35 35 35 35 35 34 34 34 34 34 34 34 33 33 32 32 32 32 33 33 33 33 32 33 33 33 33 32 31
26 28 29 31 32 33 34 34 34 34 35 35 35 35 35 35 35 36 36 36 36 36 36 36 36 35 34 34 33 33 33 33 33 33 33 33 34 34 34 34 34 35 34
27 28 29 30 31 32 33 34 34 35 35 36 36 36 36 36 36 36 36 36 37 37 37 37 37 36 35 35 34 34 34 34 34 34 34 34 35 35 35 35 36 35 36
25 27 29 30 31 32 33 34 34 34 35 36 36 36 36 36 36 36 36 36 36 37 37 37 37 37 36 36 36 35 35 35 35 35 34 35 36 35 36 37 37 37 37
25 26 27 29 30 31 32 32 33 33 34 34 35 36 36 37 37 36 36 37 37 37 38 38 38 38 38 37 37 36 36 37 37 37 36 36 36 36 37 38 38 38 38

GEFSSE_500_meanwind_114.txt.gz
Wind_Speed
3 2 1 1 1 1 2 2 2 1 1 1 2 2 3 4 5 5 6 6 6 6 6 7 7 7 7 7 7 7 7 7 7 7 6 6 6 5 6 6 7 8 8
4 3 2 2 2 2 3 3 3 3 2 1 1 1 1 2 3 3 3 4 4 4 4 4 5 5 5 5 5 5 5 6 6 6 6 5 5 6 6 6 7 8 9
4 4 4 4 4 4 4 4 4 4 4 3 2 2 2 2 2 2 2 2 2 2 2 2 2 3 3 3 3 4 4 4 5 5 5 5 5 5 6 6 7 7 8
6 5 5 5 6 6 6 6 5 5 5 5 4 4 4 4 3 3 2 2 2 2 2 2 2 1 1 1 2 3 3 3 4 4 5 5 5 5 6 6 7 7 8
7 7 7 7 7 8 8 7 7 7 7 7 6 6 6 5 5 5 5 4 4 4 4 4 4 3 3 2 2 3 3 3 4 4 5 5 5 5 6 6 7 7 7
9 9 9 9 9 9 9 9 9 8 9 9 8 8 8 7 7 7 7 7 7 6 6 6 6 6 5 5 4 4 4 4 5 5 5 5 5 6 6 7 7 7 7
10 10 10 10 10 10 11 10 10 10 10 10 10 10 10 10 9 9 10 10 9 9 8 8 7 7 7 7 7 7 6 6 6 7 7 7 7 7 7 7 7 7 8
11 11 11 11 12 12 12 12 12 12 12 12 12 12 12 12 12 11 12 12 11 11 10 10 9 9 9 9 9 9 9 8 8 8 9 9 9 9 9 9 9 9 8
12 13 13 13 13 13 14 14 15 15 15 15 14 14 14 15 15 14 14 13 13 12 12 12 13 12 12 11 11 11 11 11 11 11 11 11 11 11 11 11 10 10 10
14 15 15 15 15 16 16 16 17 17 17 17 17 17 17 17 17 17 16 15 15 15 14 14 14 15 14 14 14 14 14 13 13 13 14 13 13 13 13 13 12 12 12
16 17 18 17 17 18 18 18 19 19 19 19 20 20 20 20 20 19 18 18 17 17 17 16 16 16 17 17 17 17 17 16 16 15 16 16 16 16 15 15 15 14 14
18 19 19 19 18 18 19 21 22 21 21 21 21 21 21 22 22 21 21 20 20 20 19 19 19 18 18 18 19 19 19 19 19 18 18 19 19 18 18 18 18 17 16
20 21 21 20 19 20 21 22 22 22 22 22 23 24 24 23 24 24 23 23 22 22 22 22 21 21 20 20 20 21 21 21 21 20 20 21 21 21 21 20 20 20 19
22 22 22 21 21 22 22 23 23 23 22 22 22 23 25 23 24 25 25 24 24 24 24 24 24 23 22 22 21 21 22 23 23 22 22 23 24 24 23 23 22 22 22
23 24 23 22 23 23 23 23 22 20 21 23 24 25 25 24 25 26 25 26 27 26 26 26 25 25 24 24 23 22 23 23 25 25 24 23 25 26 25 25 24 24 25
24 24 24 24 24 24 24 23 23 21 21 22 24 25 25 24 25 28 29 29 27 27 29 29 29 27 26 25 24 23 23 24 25 26 26 26 26 27 27 27 26 26 26
25 25 26 25 24 24 25 24 24 24 24 24 25 25 26 26 25 26 27 29 30 30 31 31 31 31 29 28 26 25 24 24 26 27 27 28 29 29 29 29 28 29 28
26 26 26 24 25 24 23 23 24 24 24 25 25 25 25 25 25 26 27 27 29 30 31 32 32 31 30 29 27 27 27 25 26 27 28 29 31 32 31 31 31 31 31
27 26 25 23 23 23 23 24 25 24 25 25 25 26 26 26 26 26 27 27 29 29 29 30 32 31 31 30 30 29 29 28 27 28 30 31 32 33 33 33 33 33 33
24 22 22 22 23 23 23 24 24 24 25 25 26 26 26 26 27 27 28 28 28 29 29 30 30 31 31 31 31 31 30 29 28 28 28 31 33 33 34 34 35 34 34
21 21 21 22 22 22 23 23 24 25 25 25 26 26 26 27 27 28 28 29 29 30 30 30 31 31 32 33 33 33 32 32 30 29 29 31 32 33 34 35 35 36 36
21 21 21 21 22 22 23 23 24 25 26 26 26 27 27 28 28 29 30 31 31 32 32 33 33 34 34 35 34 34 34 34 33 31 32 33 33 35 35 36 36 37 38
19 20 20 21 22 22 23 24 25 26 26 26 26 27 27 28 29 29 30 31 32 33 34 35 35 35 36 36 36 36 36 35 35 34 34 35 35 36 36 37 37 38 39
19 20 21 22 23 23 24 24 25 25 26 26 27 27 28 28 29 30 30 31 32 34 34 35 36 37 37 38 38 38 37 37 38 37 36 37 37 38 37 37 38 39 40
19 20 20 21 22 22 23 23 24 24 25 26 27 27 28 29 30 30 31 32 33 34 35 36 36 37 38 38 39 39 39 39 39 39 38 38 38 39 39 38 38 40 40
19 20 21 21 22 22 23 23 23 24 25 26 27 28 29 30 31 31 32 33 34 35 36 37 37 38 38 39 40 40 40 40 40 40 40 40 40 40 41 39 39 41 41

GEFSSE_500_meanwind_120.txt.gz
Wind_Speed
5 5 5 5 5 5 5 5 5 6 6 6 5 5 4 3 3 2 1 1 1 2 3 3 4 4 4 4 4 5 5 5 5 5 5 5 6 7 8 8 8 9 10
7 6 6 6 6 6 6 6 6 7 7 7 7 6 5 5 4 4 3 2 2 1 0 1 2 2 3 3 3 3 3 3 4 4 5 5 5 6 7 8 9 9 11
8 8 8 7 7 7 7 8 8 8 9 8 8 7 7 6 6 6 5 5 4 3 2 1 1 0 1 1 1 1 1 2 2 3 4 4 5 6 7 8 9 10 11
9 9 9 9 9 9 9 9 9 10 10 10 9 9 9 8 8 7 7 7 6 5 5 4 3 2 2 1 1 1 1 0 1 1 2 3 4 5 7 8 8 9 9
10 10 10 10 10 10 10 11 11 11 11 11 11 10 10 10 10 9 9 8 8 7 7 6 5 4 4 3 3 2 2 2 1 1 1 2 4 5 6 7 7 8 8
10 10 10 10 11 11 11 12 12 12 12 12 12 12 12 12 11 11 11 10 10 9 9 8 7 7 6 5 5 4 4 3 3 2 2 2 3 4 5 6 7 7 7
10 10 11 12 12 12 12 13 13 13 14 14 14 14 14 13 13 13 13 12 12 12 11 11 10 9 8 7 7 7 6 5 4 5 4 3 3 4 5 6 6 6 6
11 12 13 13 13 13 14 15 15 15 15 15 16 15 15 15 15 15 15 14 14 14 13 13 12 11 10 9 9 8 8 7 6 6 5 5 5 5 5 5 6 6 6
13 14 13 14 14 15 15 16 16 17 17 17 18 18 17 17 17 17 17 16 16 16 15 15 14 13 13 12 11 11 11 10 9 8 8 8 7 7 6 6 7 7 7
15 15 15 16 16 16 16 17 17 18 18 19 19 19 19 19 19 19 19 18 18 18 17 17 16 15 14 14 14 14 13 13 12 11 10 10 9 9 9 8 8 8 8
16 16 16 16 16 17 17 17 18 19 19 20 21 21 21 21 22 22 22 21 21 20 19 19 18 17 17 16 16 16 16 16 14 13 12 13 12 12 11 11 10 10 10
18 18 18 18 18 18 18 18 19 20 20 20 21 24 24 23 23 23 23 24 23 23 22 21 20 20 19 19 18 18 18 18 17 16 15 15 15 15 14 14 13 12 12
19 19 19 20 20 21 20 20 21 21 21 21 22 23 23 23 22 22 23 24 24 24 24 24 23 22 21 21 20 20 20 20 19 18 18 18 17 17 17 16 16 15 14
20 20 20 21 22 22 23 23 21 21 22 22 23 22 23 22 21 21 23 23 24 24 25 25 25 24 23 23 22 22 22 21 21 21 20 20 18 19 19 19 18 17 17
21 22 23 23 23 24 25 24 23 23 24 24 23 23 22 23 22 22 23 24 25 24 24 25 26 26 25 23 23 23 23 23 23 22 22 21 20 20 20 21 21 21 19
22 22 23 24 24 25 26 26 25 24 25 24 24 23 22 22 24 23 23 24 24 24 24 25 26 26 27 26 24 24 25 25 25 24 23 23 23 23 23 23 23 23 22
24 25 26 25 25 26 25 26 25 24 24 24 23 22 22 22 22 23 23 23 24 24 25 26 27 27 27 27 27 26 26 26 26 25 25 24 25 25 26 25 25 25 25
24 25 26 27 26 26 26 25 24 24 24 23 22 22 23 23 22 22 22 22 23 25 26 26 27 27 26 26 27 27 28 28 28 28 27 27 27 27 28 28 28 27 27
23 24 25 25 25 24 23 23 23 22 22 22 22 22 23 22 22 22 22 23 24 24 24 25 26 27 27 28 28 28 29 30 29 29 28 27 27 28 29 30 30 29 29
21 22 22 22 20 20 20 21 21 21 22 22 22 22 23 23 23 24 24 25 25 25 25 25 26 28 28 27 28 28 28 29 30 30 29 28 27 28 29 31 31 31 31
18 18 19 20 18 18 18 19 21 22 22 22 22 22 23 24 24 25 25 25 26 26 26 27 27 28 28 28 28 29 29 30 30 30 30 29 29 30 30 31 32 32 32
17 17 18 18 18 18 19 20 20 21 21 21 22 22 23 24 24 24 25 25 26 27 27 28 28 29 29 29 29 30 31 30 31 31 31 31 30 31 31 32 33 33 34
16 17 17 17 17 18 20 20 21 21 21 21 21 22 22 23 24 24 24 25 26 27 28 28 29 30 30 31 31 31 31 32 32 33 33 33 32 32 32 33 33 34 34
16 17 17 17 18 19 20 20 20 20 21 21 21 21 21 22 22 23 24 25 26 27 28 29 30 31 32 33 33 33 33 33 33 34 34 34 34 34 34 34 34 35 35
18 18 18 18 19 19 19 20 20 20 21 21 21 21 22 22 23 24 25 26 27 28 29 30 31 32 33 34 35 35 36 36 35 35 35 35 36 36 35 35 35 36 36
19 19 19 19 19 20 20 20 21 21 21 21 22 22 23 23 24 24 25 26 27 28 29 30 32 32 33 34 35 36 36 37 38 38 37 36 37 37 37 37 37 37 37

GEFSSE_500_meanwind_126.txt.gz
Wind_Speed
2 2 2 2 2 2 2 3 3 4 5 6 6 7 7 7 7 6 5 5 4 4 3 4 4 5 5 5 5 5 5 5 5 5 5 5 6 7 8 8 9 10 10
3 2 2 2 2 3 3 3 4 5 5 6 6 7 7 7 7 7 6 5 5 4 3 3 3 3 4 4 4 4 4 5 5 5 5 5 6 7 8 8 9 9 10
4 3 3 3 3 4 4 5 5 5 6 6 7 7 7 8 7 7 7 6 6 5 4 3 3 2 3 3 3 3 3 3 4 4 4 5 6 7 8 8 9 10 10
3 3 3 4 4 5 5 5 5 6 6 7 7 8 8 8 8 8 7 7 7 6 5 4 3 3 2 2 2 2 2 2 3 3 3 4 5 6 7 8 9 10 10
3 4 5 5 5 6 6 7 7 7 7 7 7 8 8 9 8 8 8 8 8 8 7 6 5 4 3 3 3 2 1 1 2 2 2 4 5 6 7 8 9 9 10
4 5 5 5 6 6 7 7 7 8 8 8 8 9 9 10 10 10 10 9 9 9 9 8 7 6 5 4 4 3 2 1 0 0 1 3 4 6 7 8 9 9 10
4 5 5 5 6 6 7 8 8 9 9 9 10 10 11 11 11 11 11 11 11 11 11 10 9 8 7 6 5 4 3 2 2 1 1 3 4 6 6 7 8 9 9
3 4 5 6 6 7 7 8 9 9 10 11 11 11 12 13 13 13 13 13 13 13 12 12 11 11 9 8 7 6 5 4 4 3 2 3 5 5 6 7 8 8 9
4 4 6 6 8 8 9 9 10 11 11 12 12 13 14 14 15 15 15 15 15 14 14 14 14 13 12 11 10 8 7 6 6 5 5 5 6 6 7 7 8 8 9
6 6 6 7 8 10 10 10 11 11 12 13 13 13 14 15 16 17 17 17 17 17 16 16 15 15 14 13 12 11 9 9 8 8 7 7 7 8 8 9 9 9 9
8 8 7 8 9 10 10 11 11 12 13 14 14 14 15 17 18 19 19 19 19 19 19 19 18 17 16 15 14 13 12 11 11 11 10 10 9 9 10 10 10 10 10
9 8 8 9 10 11 12 12 13 14 15 15 15 16 17 17 18 20 21 21 21 20 21 22 22 20 19 17 16 16 15 14 13 13 13 12 12 11 11 12 12 12 12
10 8 9 11 12 13 13 14 15 16 17 16 16 17 18 18 18 19 20 21 21 21 22 22 23 22 22 21 19 18 17 16 15 16 16 15 14 14 13 14 14 14 14
11 9 9 11 12 13 14 15 16 17 18 18 17 17 18 19 19 19 20 20 21 21 21 22 22 22 23 23 22 21 20 19 18 18 18 18 18 17 16 16 16 16 16
12 11 12 12 14 15 15 16 17 18 19 18 18 18 19 19 19 19 20 20 20 20 21 22 22 23 24 24 24 23 21 20 20 20 20 20 19 18 17 17 17 18 18
13 14 14 14 15 16 16 17 18 18 17 17 17 18 18 19 19 19 18 19 19 20 21 21 22 22 23 24 24 24 23 21 21 21 21 20 20 20 19 20 19 19 19
12 13 14 15 15 15 16 17 17 16 15 16 17 17 17 18 19 18 18 18 18 19 20 21 22 22 23 25 26 25 25 24 24 23 22 22 22 22 21 21 21 22 21
11 12 13 14 15 16 16 16 15 15 15 15 16 16 17 17 18 18 18 18 18 19 19 20 22 22 24 25 27 27 27 26 26 26 25 24 23 23 23 23 23 23 24
11 11 12 13 14 15 15 14 14 15 15 16 16 17 17 18 18 18 18 19 20 19 20 21 21 22 24 25 27 28 29 29 27 27 27 27 26 25 25 25 25 25 26
11 12 13 14 14 14 14 14 14 15 15 15 16 17 17 18 18 19 19 20 20 20 20 21 21 21 23 25 26 27 29 29 29 28 28 29 29 28 27 26 26 27 28
11 11 11 11 12 12 13 13 13 13 14 15 17 17 18 18 18 19 19 20 20 20 21 21 21 22 24 24 25 27 28 29 31 31 29 29 29 30 29 29 28 28 29
10 11 11 11 11 11 12 12 12 13 13 15 16 16 17 17 18 19 19 19 20 20 21 22 23 23 24 25 25 26 27 29 30 31 31 30 30 31 31 31 31 30 30
9 10 10 10 11 11 11 12 12 13 13 14 15 15 16 17 18 18 19 19 20 20 21 22 23 24 25 25 26 26 27 28 29 30 31 32 32 32 33 33 32 32 32
9 10 10 10 11 11 12 12 12 13 13 13 14 14 15 16 17 18 18 19 20 21 21 22 23 24 25 26 26 27 28 28 29 31 32 33 33 33 33 34 34 33 34
10 11 11 12 12 12 12 12 13 13 13 14 14 14 15 16 16 17 18 19 20 21 22 22 23 24 25 26 27 28 29 30 31 32 33 33 34 34 35 35 35 35 36
12 12 13 13 13 13 13 13 13 13 14 14 14 14 15 15 16 17 18 18 19 21 22 22 23 24 25 26 27 28 30 31 32 33 34 35 36 36 36 36 37 37 38

GEFSSE_500_meanwind_132.txt.gz
Wind_Speed
4 4 4 3 2 0 1 3 3 3 4 4 4 5 5 6 6 6 6 6 6 6 5 6 6 7 7 7 7 7 6 6 6 6 6 6 6 7 7 7 8 8 9
5 5 5 4 3 1 0 1 1 2 2 2 2 3 3 3 4 4 4 4 5 5 5 5 5 6 6 6 6 6 6 6 5 5 6 6 6 6 6 7 7 8 9
6 6 6 5 4 2 1 1 1 1 0 0 1 1 1 2 2 2 2 3 3 3 3 4 4 4 4 5 5 5 5 5 4 4 5 6 5 6 6 7 7 8 9
8 7 7 6 5 3 2 2 1 1 1 1 1 1 1 1 1 1 1 2 2 2 2 2 2 2 2 3 3 3 3 3 3 3 4 5 5 5 6 7 7 8 9
9 8 8 7 6 5 4 3 3 3 3 3 3 3 3 3 3 2 2 2 2 3 2 2 2 1 1 1 1 2 2 2 2 3 4 4 5 6 6 7 7 8 9
9 9 8 9 7 6 5 5 4 4 4 5 5 5 5 5 5 5 4 4 4 4 3 3 3 2 2 1 1 1 0 0 1 2 3 4 5 6 6 7 7 8 8
10 10 9 8 8 7 6 5 5 5 5 6 7 7 7 7 8 7 7 6 6 5 5 5 4 4 4 3 3 2 2 1 2 2 3 4 5 6 6 7 7 8 8
10 9 9 8 8 7 6 5 6 6 6 7 7 8 9 9 10 10 9 9 8 7 7 7 6 6 6 5 5 4 4 3 3 3 3 4 5 6 6 7 7 8 8
9 8 9 9 9 8 7 6 6 7 7 7 8 9 10 11 11 11 11 11 11 10 9 9 8 8 8 8 7 7 6 6 5 5 4 5 6 7 7 7 7 8 8
10 9 8 9 10 9 8 8 8 8 8 8 8 9 10 11 12 12 12 13 13 13 12 11 11 11 10 10 9 9 9 8 7 7 6 6 7 8 8 9 9 9 9
10 9 10 10 11 11 10 9 9 9 9 10 11 11 12 12 12 13 13 14 15 14 14 14 14 13 12 12 12 11 11 11 10 9 9 8 9 9 10 10 10 10 10
10 11 11 10 11 12 12 11 11 12 12 12 13 13 14 14 14 14 14 15 16 16 16 16 16 16 15 14 13 13 13 13 13 12 12 11 11 11 11 11 12 12 12
11 11 11 11 12 13 13 13 13 13 14 14 14 15 15 15 15 15 15 16 16 17 17 17 17 17 17 16 15 14 14 14 14 14 14 14 13 13 13 13 13 14 14
11 11 12 12 13 14 14 14 13 14 14 14 14 15 16 16 16 16 16 16 16 17 17 18 18 18 18 17 17 16 16 16 16 16 16 16 16 15 14 15 16 15 15
10 10 10 11 11 13 13 13 12 12 13 13 14 15 16 16 16 17 17 17 17 17 17 18 18 18 18 18 18 19 19 18 18 18 17 17 18 17 17 16 17 18 17
9 10 10 9 9 10 11 11 11 11 12 13 14 15 15 15 16 16 16 17 17 18 19 19 19 19 19 19 20 20 20 20 20 21 19 19 20 20 19 18 18 18 19
7 7 8 8 8 9 10 11 11 11 12 13 15 14 14 15 16 16 17 18 18 19 20 20 20 20 20 21 21 22 22 22 22 23 22 21 21 21 21 21 21 20 21
4 5 7 7 7 8 9 10 10 11 12 13 14 13 13 14 15 16 17 17 18 18 19 20 20 20 21 21 22 23 23 24 24 25 25 24 23 23 24 23 23 22 22
3 4 5 6 7 8 9 8 10 11 12 13 14 14 14 15 15 16 17 17 18 18 19 20 20 20 20 21 22 22 23 24 25 26 26 26 25 25 25 25 25 24 24
3 3 4 5 6 7 7 7 9 11 12 13 14 14 14 15 15 16 16 17 18 18 18 19 19 20 20 21 21 22 22 24 25 26 27 26 27 27 27 27 26 26 26
2 2 3 4 4 5 6 8 9 10 11 12 13 13 14 14 15 16 16 17 17 18 19 19 20 20 21 22 22 23 23 24 25 25 27 28 29 29 29 30 30 29 29
2 2 3 3 4 5 5 6 7 8 9 10 11 12 13 14 15 15 16 16 17 18 19 20 21 21 21 22 22 23 24 24 26 27 27 28 30 31 31 32 32 32 32
3 4 4 4 4 5 5 6 6 8 9 10 11 12 13 13 14 14 15 16 17 18 19 20 21 21 22 22 23 24 25 25 27 28 28 29 31 32 32 33 33 33 34
4 4 5 5 5 5 6 6 7 8 9 9 10 11 11 12 13 13 14 15 16 17 18 19 20 21 22 22 23 24 25 26 26 28 29 29 30 31 33 34 35 35 34
4 4 5 6 6 6 6 6 7 8 8 9 10 10 11 12 12 13 14 14 15 16 17 18 19 21 22 22 23 24 25 25 26 27 29 30 30 31 32 33 35 36 36
4 4 5 6 6 6 6 7 7 8 8 9 10 11 11 11 12 13 14 15 15 16 17 18 19 20 21 22 23 24 25 26 27 27 28 29 31 32 33 33 35 37 37

GEFSSE_500_meanwind_138.txt.gz
Wind_Speed
4 4 4 4 4 4 4 4 4 5 6 7 7 7 7 8 8 8 8 7 7 7 7 7 7 7 7 7 7 7 7 6 6 6 6 6 6 7 7 7 7 7 7
5 5 5 5 5 5 5 5 4 5 5 6 6 6 6 7 7 7 7 6 6 6 6 6 6 6 6 6 6 6 6 6 6 6 6 6 6 6 6 7 7 7 7
6 6 6 6 6 6 6 6 6 5 5 5 5 6 6 6 6 6 6 6 5 5 5 5 4 5 5 5 5 5 5 5 5 5 6 6 6 6 6 6 6 7 7
7 7 7 7 7 7 7 7 7 6 6 6 6 6 5 5 6 6 6 6 5 5 4 4 4 3 4 4 4 4 4 4 5 5 5 5 5 6 6 6 6 6 7
8 8 8 9 9 9 8 8 8 8 7 7 7 6 6 6 6 6 6 6 6 6 5 5 4 4 3 3 3 3 3 4 4 4 4 4 5 5 5 5 6 6 7
10 9 9 9 10 10 9 8 8 8 8 8 8 7 7 7 7 7 7 7 7 6 6 6 5 5 4 4 4 4 3 3 3 4 4 4 4 5 5 5 6 6 6
11 11 10 10 10 11 10 9 9 8 8 9 8 8 8 8 8 8 9 9 8 8 7 7 6 6 6 5 5 4 4 4 4 4 4 4 4 5 5 6 6 6 6
12 12 12 12 12 11 11 10 10 9 9 9 9 9 9 8 9 9 10 10 10 9 9 9 8 8 7 7 6 6 6 5 5 5 5 5 5 6 6 6 6 6 6
13 13 13 13 13 13 12 12 11 11 10 10 10 10 10 10 10 10 10 11 12 12 11 11 10 10 9 9 8 8 8 7 7 7 7 7 7 7 7 7 7 7 7
14 14 13 13 14 14 14 13 12 12 12 11 11 11 11 10 11 11 11 11 12 13 13 13 12 12 11 11 10 10 10 10 10 10 9 8 8 9 9 8 8 8 8
15 14 14 14 14 14 15 15 14 13 13 13 13 12 12 12 12 12 12 12 12 14 15 15 15 14 14 13 13 11 11 12 12 12 11 11 10 10 10 10 10 10 9
14 15 15 16 15 15 15 16 15 14 14 14 14 13 13 13 13 13 13 13 13 13 14 15 15 16 15 16 15 14 13 14 14 13 13 13 12 12 12 12 12 12 11
15 15 16 16 15 16 16 15 16 15 15 14 14 13 13 14 14 15 14 14 14 14 13 15 15 16 16 17 17 16 16 16 15 15 15 15 14 14 14 13 14 14 14
14 15 16 16 16 16 16 16 16 16 15 15 15 14 14 14 15 15 14 13 13 14 14 15 16 16 16 17 18 18 18 17 17 17 17 17 16 16 16 15 16 16 16
13 14 15 16 16 16 16 16 16 16 16 15 15 15 16 15 14 14 13 13 14 15 15 15 16 16 16 17 18 19 20 19 19 19 19 18 17 17 18 17 17 18 18
14 14 14 14 15 16 16 16 15 15 16 15 13 13 14 14 14 14 13 13 14 15 15 16 16 17 18 18 18 19 21 21 21 21 21 20 20 19 20 20 20 20 20
13 13 13 14 14 15 15 15 14 14 14 13 12 12 13 14 14 14 13 13 13 15 15 16 17 17 18 18 18 19 21 22 22 22 22 22 22 21 21 21 22 21 21
10 11 12 12 12 13 14 14 13 13 13 13 13 12 13 13 13 13 13 13 14 15 16 16 17 17 18 18 18 19 20 21 22 23 24 24 23 23 23 23 23 22 21
8 8 9 10 11 11 11 12 11 11 11 11 11 11 12 12 13 13 14 14 14 15 16 16 17 17 18 18 19 19 20 22 23 23 24 25 25 25 24 25 25 24 23
6 7 8 9 9 10 10 10 10 10 10 10 10 10 11 12 12 13 14 14 15 15 16 16 17 18 18 18 19 19 19 21 23 24 25 26 26 27 27 27 27 26 25
4 6 7 7 8 8 9 9 10 9 9 9 8 9 10 11 12 12 13 13 14 15 16 17 17 17 17 18 19 20 20 20 22 24 25 26 27 28 29 28 28 27 26
2 3 4 5 6 7 7 7 7 7 7 7 8 8 9 10 11 11 12 13 13 14 14 15 16 16 17 18 19 20 20 21 21 23 24 25 27 27 29 29 29 29 29
2 2 3 3 3 4 5 5 5 5 5 6 6 6 8 9 9 10 11 12 13 13 13 14 15 15 16 17 18 19 20 21 21 22 24 26 27 28 29 31 31 31 31
2 2 2 2 1 2 3 3 3 4 4 4 5 6 7 7 8 9 10 11 12 12 13 13 14 15 16 17 18 19 20 21 22 22 24 25 27 28 29 29 31 33 33
2 2 2 2 1 1 1 1 2 3 3 4 4 5 6 6 7 7 8 9 11 11 12 12 13 14 15 16 17 18 20 21 22 23 24 25 27 27 29 30 31 33 34
3 3 2 1 1 1 1 0 0 1 2 3 4 4 4 5 6 7 8 8 10 10 11 11 12 13 14 15 16 18 19 21 22 23 24 25 27 27 28 30 31 32 34